When you browse on this site, cookies collect data to enhance your experience and personalize the content and advertising you see.
Visit our Privacy Policy to learn more. By continuing to use the site, you agree to this use of cookies and data.
  • En España
  • Lista de países
  • Para 7 días
  • Temperatura del agua
  • El tiempo en el mapa
  • Informadores
  • user-avatar
    Iniciar sesión

    Tiempo cada hora Aktau

    Hoy, 6 Junio, Sábado

    Tiempo Temperatura Precipitaciones Viento Presión Humedad
    00:00 +24°C° 0.4 mm 6 mps 760 mmHg 56%
    01:00 +24°C° 0.4 mm 6 mps 760 mmHg 57%
    02:00 +25°C° 0.4 mm 5 mps 760 mmHg 57%
    03:00 +25°C° 0.4 mm 5 mps 761 mmHg 58%
    04:00 +26°C° 0 mm 6 mps 761 mmHg 56%
    05:00 +27°C° 0 mm 7 mps 761 mmHg 53%
    06:00 +27°C° 0 mm 8 mps 761 mmHg 51%
    07:00 +28°C° 0 mm 8 mps 761 mmHg 46%
    08:00 +29°C° 0 mm 8 mps 762 mmHg 41%
    09:00 +32°C° 0 mm 8 mps 762 mmHg 36%
    10:00 +32°C° 0 mm 8 mps 762 mmHg 33%
    11:00 +33°C° 0 mm 8 mps 762 mmHg 31%
    12:00 +34°C° 0 mm 9 mps 762 mmHg 28%
    13:00 +33°C° 0 mm 9 mps 762 mmHg 28%
    14:00 +33°C° 0 mm 8 mps 762 mmHg 27%
    15:00 +33°C° 0 mm 8 mps 762 mmHg 26%
    16:00 +32°C° 0 mm 8 mps 761 mmHg 28%
    17:00 +32°C° 0 mm 8 mps 761 mmHg 29%
    18:00 +30°C° 0 mm 7 mps 761 mmHg 30%
    19:00 +29°C° 0 mm 7 mps 761 mmHg 33%
    20:00 +28°C° 0 mm 7 mps 762 mmHg 36%
    21:00 +27°C° 0 mm 7 mps 762 mmHg 39%
    22:00 +26°C° 0 mm 6 mps 761 mmHg 42%
    23:00 +26°C° 0 mm 6 mps 761 mmHg 45%

    Mañana, 7 Junio, Domingo

    Tiempo Temperatura Precipitaciones Viento Presión Humedad
    00:00 +24°C° 0 mm 6 mps 761 mmHg 47%
    01:00 +24°C° 0 mm 6 mps 761 mmHg 50%
    02:00 +24°C° 0 mm 6 mps 761 mmHg 54%
    03:00 +23°C° 0 mm 6 mps 761 mmHg 57%
    04:00 +24°C° 0 mm 6 mps 761 mmHg 54%
    05:00 +26°C° 0 mm 6 mps 761 mmHg 50%
    06:00 +27°C° 0 mm 5 mps 761 mmHg 46%
    07:00 +29°C° 0 mm 5 mps 761 mmHg 39%
    08:00 +32°C° 0 mm 4 mps 761 mmHg 32%
    09:00 +34°C° 0 mm 4 mps 761 mmHg 24%
    10:00 +34°C° 0 mm 4 mps 761 mmHg 22%
    11:00 +35°C° 0 mm 4 mps 761 mmHg 19%
    12:00 +36°C° 0 mm 5 mps 761 mmHg 17%
    13:00 +36°C° 0 mm 5 mps 760 mmHg 16%
    14:00 +36°C° 0 mm 5 mps 760 mmHg 16%
    15:00 +37°C° 0 mm 5 mps 760 mmHg 15%
    16:00 +36°C° 0 mm 5 mps 760 mmHg 15%
    17:00 +36°C° 0 mm 5 mps 759 mmHg 15%
    18:00 +36°C° 0 mm 5 mps 759 mmHg 14%
    19:00 +34°C° 0 mm 5 mps 759 mmHg 16%
    20:00 +33°C° 0 mm 6 mps 759 mmHg 18%
    21:00 +32°C° 0 mm 6 mps 759 mmHg 19%
    22:00 +30°C° 0 mm 6 mps 759 mmHg 23%
    23:00 +29°C° 0 mm 6 mps 759 mmHg 26%

    Pasado mañana, 8 Junio, Lunes

    Tiempo Temperatura Precipitaciones Viento Presión Humedad
    00:00 +28°C° 0 mm 6 mps 759 mmHg 29%
    01:00 +27°C° 0 mm 5 mps 758 mmHg 32%
    02:00 +27°C° 0 mm 5 mps 758 mmHg 34%
    03:00 +26°C° 0 mm 5 mps 758 mmHg 37%
    04:00 +27°C° 0 mm 5 mps 758 mmHg 34%
    05:00 +27°C° 0 mm 4 mps 758 mmHg 32%
    06:00 +28°C° 0 mm 4 mps 758 mmHg 29%
    07:00 +30°C° 0 mm 4 mps 758 mmHg 25%
    08:00 +31°C° 0 mm 3 mps 758 mmHg 20%
    09:00 +34°C° 0 mm 3 mps 758 mmHg 16%
    10:00 +35°C° 0 mm 3 mps 758 mmHg 15%
    11:00 +36°C° 0 mm 3 mps 758 mmHg 14%
    12:00 +36°C° 0 mm 2 mps 758 mmHg 14%
    13:00 +37°C° 0 mm 3 mps 758 mmHg 14%
    14:00 +37°C° 0 mm 3 mps 758 mmHg 14%
    15:00 +37°C° 0 mm 4 mps 757 mmHg 14%
    16:00 +36°C° 0 mm 4 mps 757 mmHg 16%
    17:00 +35°C° 0 mm 3 mps 757 mmHg 17%
    18:00 +34°C° 0 mm 3 mps 757 mmHg 19%
    19:00 +33°C° 0 mm 3 mps 757 mmHg 21%
    20:00 +31°C° 0 mm 2 mps 757 mmHg 23%
    21:00 +30°C° 0 mm 2 mps 757 mmHg 24%
    22:00 +29°C° 0 mm 1 mps 757 mmHg 25%
    23:00 +28°C° 0 mm 1 mps 757 mmHg 26%

    9 Junio, Martes

    Tiempo Temperatura Precipitaciones Viento Presión Humedad
    00:00 +26°C° 0 mm 0 mps 757 mmHg 27%
    01:00 +25°C° 0 mm 0 mps 757 mmHg 27%
    02:00 +27°C° 0 mm 1 mps 757 mmHg 27%
    03:00 +26°C° 0 mm 1 mps 757 mmHg 28%
    04:00 +27°C° 0 mm 3 mps 757 mmHg 25%
    05:00 +28°C° 0 mm 4 mps 758 mmHg 23%
    06:00 +29°C° 0 mm 6 mps 758 mmHg 21%
    07:00 +32°C° 0 mm 7 mps 758 mmHg 18%
    08:00 +34°C° 0 mm 8 mps 758 mmHg 16%
    09:00 +35°C° 0 mm 8 mps 759 mmHg 13%
    10:00 +37°C° 0 mm 8 mps 759 mmHg 13%
    11:00 +39°C° 0 mm 8 mps 759 mmHg 12%
    12:00 +40°C° 0 mm 7 mps 759 mmHg 12%
    13:00 +39°C° 0 mm 6 mps 759 mmHg 13%
    14:00 +39°C° 0 mm 5 mps 758 mmHg 13%
    15:00 +38°C° 0 mm 4 mps 758 mmHg 14%
    16:00 +37°C° 0 mm 3 mps 758 mmHg 14%
    17:00 +37°C° 0 mm 2 mps 758 mmHg 14%
    18:00 +36°C° 0 mm 2 mps 758 mmHg 15%
    19:00 +35°C° 0 mm 2 mps 758 mmHg 16%
    20:00 +35°C° 0 mm 2 mps 758 mmHg 16%
    21:00 +34°C° 0 mm 2 mps 758 mmHg 17%
    22:00 +33°C° 0 mm 3 mps 758 mmHg 17%
    23:00 +33°C° 0 mm 5 mps 759 mmHg 17%

    10 Junio, Miércoles

    Tiempo Temperatura Precipitaciones Viento Presión Humedad
    00:00 +32°C° 0 mm 7 mps 759 mmHg 17%
    01:00 +30°C° 0 mm 7 mps 759 mmHg 18%
    02:00 +29°C° 0 mm 8 mps 759 mmHg 20%
    03:00 +28°C° 0 mm 8 mps 759 mmHg 22%
    04:00 +29°C° 0 mm 9 mps 759 mmHg 21%
    05:00 +29°C° 0 mm 9 mps 760 mmHg 19%
    06:00 +31°C° 0 mm 9 mps 760 mmHg 18%
    07:00 +32°C° 0 mm 8 mps 760 mmHg 16%
    08:00 +34°C° 0 mm 8 mps 760 mmHg 14%
    09:00 +35°C° 0 mm 7 mps 761 mmHg 13%
    10:00 +36°C° 0 mm 7 mps 761 mmHg 12%
    11:00 +38°C° 0 mm 6 mps 761 mmHg 11%
    12:00 +39°C° 0 mm 5 mps 761 mmHg 9%
    13:00 +39°C° 0 mm 5 mps 760 mmHg 9%
    14:00 +38°C° 0 mm 4 mps 760 mmHg 9%
    15:00 +40°C° 0 mm 4 mps 759 mmHg 8%
    16:00 +38°C° 0 mm 3 mps 759 mmHg 9%
    17:00 +37°C° 0 mm 3 mps 759 mmHg 10%
    18:00 +37°C° 0 mm 3 mps 759 mmHg 11%
    19:00 +35°C° 0 mm 3 mps 759 mmHg 13%
    20:00 +34°C° 0 mm 3 mps 759 mmHg 14%
    21:00 +33°C° 0 mm 3 mps 759 mmHg 16%
    22:00 +33°C° 0 mm 5 mps 759 mmHg 16%
    23:00 +32°C° 0 mm 6 mps 759 mmHg 17%

    11 Junio, Jueves

    Tiempo Temperatura Precipitaciones Viento Presión Humedad
    00:00 +32°C° 0 mm 7 mps 759 mmHg 17%
    01:00 +30°C° 0 mm 7 mps 759 mmHg 19%
    02:00 +29°C° 0 mm 7 mps 759 mmHg 22%
    03:00 +29°C° 0 mm 7 mps 759 mmHg 24%
    04:00 +29°C° 0 mm 7 mps 759 mmHg 23%
    05:00 +29°C° 0 mm 7 mps 759 mmHg 22%
    06:00 +30°C° 0 mm 7 mps 760 mmHg 22%
    07:00 +33°C° 0 mm 6 mps 760 mmHg 19%
    08:00 +34°C° 0 mm 6 mps 760 mmHg 17%
    09:00 +36°C° 0 mm 5 mps 760 mmHg 14%
    10:00 +37°C° 0 mm 5 mps 760 mmHg 13%
    11:00 +37°C° 0 mm 4 mps 760 mmHg 13%
    12:00 +38°C° 0 mm 4 mps 759 mmHg 12%
    13:00 +38°C° 0 mm 3 mps 759 mmHg 12%
    14:00 +39°C° 0 mm 3 mps 758 mmHg 12%
    15:00 +39°C° 0 mm 3 mps 758 mmHg 11%
    16:00 +38°C° 0 mm 3 mps 757 mmHg 12%
    17:00 +38°C° 0 mm 3 mps 757 mmHg 13%
    18:00 +37°C° 0 mm 4 mps 757 mmHg 13%
    19:00 +36°C° 0 mm 4 mps 757 mmHg 13%
    20:00 +36°C° 0 mm 4 mps 757 mmHg 13%
    21:00 +35°C° 0 mm 4 mps 757 mmHg 13%
    22:00 +34°C° 0 mm 5 mps 757 mmHg 13%
    23:00 +34°C° 0 mm 5 mps 756 mmHg 14%
    Mostrar más